Location: Lone Pine Community Mobile Home Park
(42.7367°N, 73.8567°W)
Time: 09:44:56
(UTC+00:00)

Cosmos 2278 - Pass Details

Date: 29 October 2020
Orbit: 842 x 851 km, 71.1° (Epoch: 23 November)

Event Time Altitude Azimuth Distance (km) Brightness Sun altitude
Rises 23:07:06 0° 180° (S) 3,396 6.9 -14.4°
Reaches altitude 10° 23:09:40 10° 173° (S) 2,464 6.1 -14.9°
Maximum altitude 23:14:53 39° 106° (ESE) 1,244 4.1 -15.9°
Enters shadow 23:18:43 17° 46° (NE) 2,004 5.2 -16.6°
